Location: South Lake Conway Villa
(28.4637°N, 81.3446°W)
Time: 08:45:40
(UTC+00:00)

COSMOS 2406 - Visible Passes

Search period start: 09 June 2026 00:00
Search period end: 19 June 2026 00:00
Orbit: 846 x 858 km, 71.0° (Epoch: 8 June)

Date Brightness Start Highest point End Pass type
(mag) Time Alt. Az. Time Alt. Az. Time Alt. Az.
9 Jun 4.3 06:39:45 10° N 06:44:00 40° NE 06:44:00 40° NE visible
9 Jun 5.3 08:25:29 10° WNW 08:25:58 11° WNW 08:25:58 11° WNW visible
10 Jun 4.5 06:27:48 10° N 06:31:39 37° NNE 06:31:39 37° NNE visible
10 Jun 5.5 08:13:33 10° WNW 08:13:37 10° WNW 08:13:37 10° WNW visible
11 Jun 4.6 06:15:52 10° N 06:19:23 34° NNE 06:19:23 34° NNE visible
12 Jun 4.7 06:03:54 10° N 06:07:12 32° NNE 06:07:12 32° NNE visible
13 Jun 4.8 05:51:57 10° N 05:55:05 30° NNE 05:55:05 30° NNE visible
14 Jun 4.9 05:40:01 10° N 05:43:01 29° NNE 05:43:01 29° NNE visible
15 Jun 4.9 05:28:04 10° N 05:31:00 29° NNE 05:31:00 29° NNE visible
16 Jun 4.9 05:16:07 10° N 05:19:01 29° N 05:19:01 29° N visible
17 Jun 4.9 05:04:10 10° N 05:07:06 29° N 05:07:06 29° N visible
18 Jun 4.8 04:52:14 10° N 04:55:12 30° N 04:55:12 30° N visible
